KY1LAW Weather Reports


time (UTC)temp
C
wind
direction
speed
KPH
gust
KPH
rain 1hr
cm
rain 24hr
cm
rain mn
cm
humidity
%
barometer
mb
20260905224526 36 350 1.6 6.4 0.00 0.00 0.00 61 1011.3
20260905224024 36 274 1.6 12.9 0.00 0.00 0.00 62 1011.3
20260905223526 36 276 8.0 12.9 0.00 0.00 0.00 61 1011.2
20260905223031 36 257 4.8 6.4 0.00 0.00 0.00 60 1011.1
20260905222521 36 257 1.6 11.3 0.00 0.00 0.00 60 1011.2
20260905222020 36 257 4.8 11.3 0.00 0.00 0.00 59 1011.1
20260905221521 36 261 4.8 12.9 0.00 0.00 0.00 58 1011.2
20260905221021 36 271 4.8 12.9 0.00 0.00 0.00 57 1011.0
20260905220523 36 258 4.8 19.3 0.00 0.00 0.00 56 1011.0
20260905220019 37 282 11.3 20.9 0.00 0.00 0.00 55 1011.1
20260905215522 37 263 8.0 17.7 0.00 0.00 0.00 56 1011.1
20260905215020 37 268 9.7 14.5 0.00 0.00 0.00 55 1011.1
20260905214517 37 263 9.7 19.3 0.00 0.00 0.00 56 1011.1
20260905214016 37 288 8.0 17.7 0.00 0.00 0.00 56 1011.1
20260905213515 37 291 6.4 17.7 0.00 0.00 0.00 56 1011.1
20260905213014 37 282 9.7 17.7 0.00 0.00 0.00 56 1011.1
20260905212511 37 319 8.0 16.1 0.00 0.00 0.00 56 1011.1
20260905212010 37 280 6.4 17.7 0.00 0.00 0.00 56 1011.2
20260905211507 37 254 9.7 19.3 0.00 0.00 0.00 57 1011.2
20260905211006 37 269 9.7 19.3 0.00 0.00 0.00 58 1011.2
20260905210505 37 12 1.6 8.0 0.00 0.00 0.00 59 1011.2
20260905210004 36 339 4.8 14.5 0.00 0.00 0.00 57 1011.4
20260905205504 36 288 1.6 12.9 0.00 0.00 0.00 59 1011.4
20260905205003 36 282 3.2 12.9 0.00 0.00 0.00 58 1011.5
20260905204503 36 292 4.8 11.3 0.00 0.00 0.00 59 1011.7
20260905204003 36 293 1.6 4.8 0.00 0.00 0.00 60 1011.6
20260905203502 36 293 1.6 8.0 0.00 0.00 0.00 60 1011.7
20260905203001 36 293 3.2 11.3 0.00 0.00 0.00 60 1011.9
20260905202600 36 289 4.8 11.3 0.00 0.00 0.00 59 1011.9
20260905202100 36 279 3.2 11.3 0.00 0.00 0.00 60 1011.9
20260905201559 36 277 4.8 11.3 0.00 0.00 0.00 59 1012.0
20260905201059 37 275 1.6 14.5 0.00 0.00 0.00 58 1012.0
20260905200557 37 254 6.4 14.5 0.00 0.00 0.00 59 1012.1
20260905200059 37 283 3.2 16.1 0.00 0.00 0.00 58 1012.1
20260905195555 37 292 4.8 22.5 0.00 0.00 0.00 59 1012.2
20260905195058 37 269 12.9 22.5 0.00 0.00 0.00 59 1012.2
20260905194554 36 355 8.0 20.9 0.00 0.00 0.00 59 1012.2
20260905194051 36 319 4.8 12.9 0.00 0.00 0.00 60 1012.2
20260905193553 36 317 4.8 14.5 0.00 0.00 0.00 61 1012.3
20260905193050 36 333 4.8 14.5 0.00 0.00 0.00 60 1012.5
20260905192549 36 279 8.0 14.5 0.00 0.00 0.00 62 1012.6
20260905192047 36 321 0.0 6.4 0.00 0.00 0.00 62 1012.7
20260905191547 36 5 1.6 6.4 0.00 0.00 0.00 63 1012.8
20260905191046 36 5 3.2 6.4 0.00 0.00 0.00 65 1012.8
20260905190545 36 360 0.0 8.0 0.00 0.00 0.00 63 1012.9
20260905190052 36 360 3.2 9.7 0.00 0.00 0.00 63 1013.0
20260905185543 36 326 4.8 9.7 0.00 0.00 0.00 63 1013.0
20260905185041 36 338 3.2 9.7 0.00 0.00 0.00 63 1013.0
20260905184553 36 28 4.8 14.5 0.00 0.00 0.00 64 1013.1
20260905184039 36 317 3.2 12.9 0.00 0.00 0.00 63 1013.2
20260905183539 36 5 3.2 8.0 0.00 0.00 0.00 63 1013.2
20260905183043 36 18 4.8 11.3 0.00 0.00 0.00 63 1013.4
20260905182535 36 297 4.8 11.3 0.00 0.00 0.00 65 1013.5
20260905182034 35 316 1.6 6.4 0.00 0.00 0.00 66 1013.7
20260905181533 35 314 3.2 8.0 0.00 0.00 0.00 67 1013.7
20260905181032 35 313 1.6 17.7 0.00 0.00 0.00 66 1013.6
20260905180532 35 342 6.4 17.7 0.00 0.00 0.00 66 1013.6
20260905180030 36 298 4.8 11.3 0.00 0.00 0.00 63 1013.5
20260905175531 36 59 4.8 12.9 0.00 0.00 0.00 66 1013.7
20260905175030 35 360 1.6 16.1 0.00 0.00 0.00 64 1013.7
20260905174527 35 315 4.8 16.1 0.00 0.00 0.00 64 1014.0
20260905174024 35 311 1.6 8.0 0.00 0.00 0.00 66 1014.0
20260905173524 35 311 3.2 9.7 0.00 0.00 0.00 64 1014.1
20260905173022 35 346 4.8 9.7 0.00 0.00 0.00 65 1014.2
20260905172520 35 360 3.2 12.9 0.00 0.00 0.00 65 1014.3
20260905172018 35 21 4.8 11.3 0.00 0.00 0.00 64 1014.2
20260905171517 35 350 3.2 12.9 0.00 0.00 0.00 64 1014.3
20260905171017 35 313 4.8 12.9 0.00 0.00 0.00 64 1014.3
20260905170513 35 339 4.8 16.1 0.00 0.00 0.00 65 1014.4
20260905170012 35 28 9.7 16.1 0.00 0.00 0.00 65 1014.3
20260905165511 35 309 4.8 14.5 0.00 0.00 0.00 65 1014.4
20260905165009 35 360 8.0 14.5 0.00 0.00 0.00 65 1014.4
20260905164508 35 259 1.6 11.3 0.00 0.00 0.00 68 1014.5
20260905164007 34 254 3.2 12.9 0.00 0.00 0.00 68 1014.5
20260905163507 35 311 4.8 14.5 0.00 0.00 0.00 67 1014.6
20260905163009 35 244 6.4 16.1 0.00 0.00 0.00 67 1014.5
20260905162504 35 269 3.2 16.1 0.00 0.00 0.00 67 1014.5
20260905162001 35 22 3.2 8.0 0.00 0.00 0.00 68 1014.6
20260905161600 35 24 4.8 14.5 0.00 0.00 0.00 67 1014.6
20260905161058 35 348 4.8 14.5 0.00 0.00 0.00 67 1014.7
20260905160557 35 284 4.8 12.9 0.00 0.00 0.00 68 1014.7
20260905160106 35 328 3.2 12.9 0.00 0.00 0.00 70 1014.7
20260905155553 34 289 1.6 16.1 0.00 0.00 0.00 69 1014.7
20260905155052 34 292 11.3 16.1 0.00 0.00 0.00 70 1014.8
20260905154551 34 337 4.8 12.9 0.00 0.00 0.00 71 1014.9
20260905154049 34 242 3.2 12.9 0.00 0.00 0.00 72 1014.9
20260905153547 33 254 4.8 12.9 0.00 0.00 0.00 72 1015.0
20260905153056 33 5 4.8 11.3 0.00 0.00 0.00 72 1015.0
20260905152545 33 360 4.8 11.3 0.00 0.00 0.00 72 1015.0
20260905152043 33 291 3.2 11.3 0.00 0.00 0.00 74 1015.0
20260905151543 33 313 4.8 11.3 0.00 0.00 0.00 75 1015.0
20260905151038 33 288 4.8 11.3 0.00 0.00 0.00 75 1015.1
20260905150538 33 290 4.8 11.3 0.00 0.00 0.00 76 1015.2
20260905150037 33 296 3.2 11.3 0.00 0.00 0.00 77 1015.2
20260905145535 32 259 4.8 12.9 0.00 0.00 0.00 76 1015.2
20260905145033 32 278 4.8 12.9 0.00 0.00 0.00 77 1015.2
20260905144532 32 290 8.0 12.9 0.00 0.00 0.00 77 1015.3
20260905144030 32 263 4.8 14.5 0.00 0.00 0.00 79 1015.2
20260905143529 32 263 8.0 14.5 0.00 0.00 0.00 77 1015.1
20260905143032 32 283 9.7 14.5 0.00 0.00 0.00 78 1015.2
20260905142532 31 277 9.7 14.5 0.00 0.00 0.00 78 1015.2
20260905142027 31 291 8.0 14.5 0.00 0.00 0.00 78 1015.2
20260905141526 31 292 8.0 14.5 0.00 0.00 0.00 80 1015.2
20260905141024 31 327 9.7 14.5 0.00 0.00 0.00 82 1015.2
20260905140522 31 175 1.6 4.8 0.00 0.00 0.00 85 1015.2
20260905140021 30 173 0.0 3.2 0.00 0.00 0.00 87 1015.2
20260905135520 30 173 0.0 3.2 0.00 0.00 0.00 89 1015.1
20260905135019 30 173 0.0 0.0 0.00 0.00 0.00 91 1015.3
20260905134522 29 173 0.0 3.2 0.00 0.00 0.00 92 1015.2
20260905134015 28 173 0.0 3.2 0.00 0.00 0.00 93 1015.2
20260905133513 28 173 0.0 1.6 0.00 0.00 0.00 94 1015.3
20260905133018 27 173 0.0 1.6 0.00 0.00 0.00 95 1015.3
20260905132511 27 173 0.0 3.2 0.00 0.00 0.00 96 1015.2
20260905132009 27 173 0.0 3.2 0.00 0.00 0.00 97 1015.3
20260905131514 26 173 0.0 4.8 0.00 0.00 0.00 99 1015.3
20260905131009 26 173 1.6 4.8 0.00 0.00 0.00 99 1015.2
20260905130504 26 173 1.6 3.2 0.00 0.00 0.00 100 1015.3
20260905130011 25 173 0.0 1.6 0.00 0.00 0.00 100 1015.3
20260905125502 25 173 0.0 0.0 0.00 0.00 0.00 100 1015.3
20260905125001 24 173 0.0 0.0 0.00 0.00 0.00 100 1015.3
20260905124600 24 173 0.0 0.0 0.00 0.00 0.00 100 1015.3
20260905124058 23 173 0.0 1.6 0.00 0.00 0.00 100 1015.4
20260905123558 23 173 0.0 1.6 0.00 0.00 0.00 100 1015.3
20260905123059 22 173 0.0 0.0 0.00 0.00 0.00 100 1015.3
20260905122557 22 173 0.0 0.0 0.00 0.00 0.00 100 1015.2
20260905122057 22 173 0.0 0.0 0.00 0.00 0.00 100 1015.2
20260905121556 22 173 0.0 1.6 0.00 0.00 0.00 100 1015.2
20260905121056 21 173 0.0 1.6 0.00 0.00 0.00 100 1015.2
20260905120600 21 173 0.0 0.0 0.00 0.00 0.00 100 1015.1
20260905120106 21 173 0.0 0.0 0.00 0.00 0.00 100 1015.1
20260905115559 21 173 0.0 0.0 0.00 0.00 0.00 100 1015.1
20260905115056 21 173 0.0 0.0 0.00 0.00 0.00 100 1015.0
20260905114555 21 173 0.0 0.0 0.00 0.00 0.00 100 1015.0
20260905114054 21 173 0.0 0.0 0.00 0.00 0.00 100 1015.0
20260905113554 21 173 0.0 0.0 0.00 0.00 0.00 100 1015.0
20260905113052 21 173 0.0 0.0 0.00 0.00 0.00 100 1014.9
20260905112553 21 173 0.0 0.0 0.00 0.00 0.00 100 1014.9
20260905112052 21 173 0.0 0.0 0.00 0.00 0.00 100 1014.9
20260905111608 21 173 0.0 0.0 0.00 0.00 0.00 100 1014.9
20260905111052 21 173 0.0 0.0 0.00 0.00 0.00 100 1014.8
20260905110555 21 173 0.0 0.0 0.00 0.00 0.00 100 1014.8
20260905110056 21 173 0.0 0.0 0.00 0.00 0.00 100 1014.7
20260905105550 21 173 0.0 1.6 0.00 0.00 0.00 100 1014.6
20260905105049 21 173 0.0 1.6 0.00 0.00 0.00 100 1014.6
20260905104548 21 173 0.0 0.0 0.00 0.00 0.00 100 1014.6
20260905104049 21 173 0.0 0.0 0.00 0.00 0.00 100 1014.5
20260905103548 21 173 0.0 0.0 0.00 0.00 0.00 100 1014.4
20260905103048 21 173 0.0 0.0 0.00 0.00 0.00 100 1014.4
20260905102548 21 173 0.0 0.0 0.00 0.00 0.00 100 1014.3
20260905102146 21 173 0.0 0.0 0.00 0.00 0.00 100 1014.2
20260905101549 21 173 0.0 0.0 0.00 0.00 0.00 100 1014.3
20260905101045 21 173 0.0 0.0 0.00 0.00 0.00 100 1014.2
20260905100544 21 173 0.0 0.0 0.00 0.00 0.00 100 1014.2
20260905100046 21 173 0.0 0.0 0.00 0.00 0.00 100 1014.2
20260905095543 21 173 0.0 0.0 0.00 0.00 0.00 100 1014.2
20260905095044 21 173 0.0 0.0 0.00 0.00 0.00 100 1014.1
20260905094544 21 173 0.0 0.0 0.00 0.00 0.00 100 1014.2
20260905094042 21 173 0.0 0.0 0.00 0.00 0.00 100 1014.1
20260905093542 21 173 0.0 0.0 0.00 0.00 0.00 100 1014.1
20260905093043 22 173 0.0 0.0 0.00 0.00 0.00 100 1014.0
20260905092543 21 173 0.0 0.0 0.00 0.00 0.00 100 1013.9
20260905092044 21 173 0.0 0.0 0.00 0.00 0.00 100 1014.1
20260905091542 21 173 0.0 0.0 0.00 0.00 0.00 100 1014.0
20260905091041 21 173 0.0 0.0 0.00 0.00 0.00 100 1014.0
20260905090546 21 173 0.0 0.0 0.00 0.00 0.00 100 1014.0
20260905090041 22 173 0.0 0.0 0.00 0.00 0.00 100 1013.9
20260905085542 22 173 0.0 0.0 0.00 0.00 0.00 100 1013.9
20260905085041 22 173 0.0 0.0 0.00 0.00 0.00 100 1013.9
20260905084540 22 173 0.0 0.0 0.00 0.00 0.00 100 1013.9
20260905084040 22 173 0.0 0.0 0.00 0.00 0.00 100 1013.9
20260905083540 22 173 0.0 0.0 0.00 0.00 0.00 100 1013.9
20260905083039 22 173 0.0 0.0 0.00 0.00 0.00 100 1013.9
20260905082539 22 173 0.0 0.0 0.00 0.00 0.00 100 1014.0
20260905082039 22 173 0.0 0.0 0.00 0.00 0.00 100 1013.9
20260905081538 22 173 0.0 0.0 0.00 0.00 0.00 100 1013.9
20260905081037 22 173 0.0 0.0 0.00 0.00 0.00 100 1014.0
20260905080537 22 173 0.0 0.0 0.00 0.00 0.00 100 1013.9
20260905080040 22 173 0.0 0.0 0.00 0.00 0.00 100 1014.0
20260905075540 22 173 0.0 0.0 0.00 0.00 0.00 100 1013.9
20260905075038 22 173 0.0 0.0 0.00 0.00 0.00 100 1013.9
20260905074540 22 173 0.0 0.0 0.00 0.00 0.00 100 1014.0
20260905074035 22 173 0.0 0.0 0.00 0.00 0.00 100 1014.1
20260905073537 22 173 0.0 0.0 0.00 0.00 0.00 100 1014.1
20260905073053 22 173 0.0 0.0 0.00 0.00 0.00 100 1014.1
20260905072535 22 173 0.0 0.0 0.00 0.00 0.00 100 1014.0
20260905072034 22 173 0.0 0.0 0.00 0.00 0.00 100 1014.0
20260905071541 22 173 0.0 0.0 0.00 0.00 0.00 100 1014.0
20260905071033 22 173 0.0 0.0 0.00 0.00 0.00 100 1014.0
20260905070533 22 173 0.0 0.0 0.00 0.00 0.00 100 1014.0
20260905070032 22 173 0.0 0.0 0.00 0.00 0.00 100 1014.1
20260905065532 22 173 0.0 0.0 0.00 0.00 0.00 100 1014.1
20260905065031 22 173 0.0 0.0 0.00 0.00 0.00 100 1014.1
20260905064531 22 173 0.0 0.0 0.00 0.00 0.00 100 1014.1
20260905064031 22 173 0.0 0.0 0.00 0.00 0.00 100 1014.1
20260905063530 22 173 0.0 0.0 0.00 0.00 0.00 100 1014.1
20260905063030 22 173 0.0 0.0 0.00 0.00 0.00 100 1014.1
20260905062533 23 173 0.0 0.0 0.00 0.00 0.00 100 1014.2
20260905062029 23 173 0.0 0.0 0.00 0.00 0.00 100 1014.2
20260905061531 23 173 0.0 0.0 0.00 0.00 0.00 100 1014.3
20260905061027 22 173 0.0 0.0 0.00 0.00 0.00 100 1014.3
20260905060527 22 173 0.0 0.0 0.00 0.00 0.00 100 1014.3
20260905060035 22 173 0.0 0.0 0.00 0.00 0.00 100 1014.3
20260905055527 23 173 0.0 0.0 0.00 0.00 0.00 100 1014.3
20260905055027 23 173 0.0 0.0 0.00 0.00 0.00 100 1014.3
20260905054539 23 173 0.0 0.0 0.00 0.00 0.00 100 1014.4
20260905054026 23 173 0.0 1.6 0.00 0.00 0.00 100 1014.4
20260905053527 23 173 0.0 1.6 0.00 0.00 0.00 100 1014.4
20260905053025 23 173 0.0 0.0 0.00 0.00 0.00 100 1014.4
20260905052524 23 173 0.0 0.0 0.00 0.00 0.00 100 1014.3
20260905052024 23 173 0.0 0.0 0.00 0.00 0.00 100 1014.4
20260905051524 23 173 0.0 0.0 0.00 0.00 0.00 100 1014.5
20260905051023 23 173 0.0 0.0 0.00 0.00 0.00 100 1014.5
20260905050522 23 173 0.0 0.0 0.00 0.00 0.00 100 1014.5
20260905050021 23 173 0.0 0.0 0.00 0.00 0.00 100 1014.4
20260905045520 23 173 0.0 0.0 0.00 0.00 0.00 100 1014.4
20260905045020 23 173 0.0 0.0 0.00 0.00 0.00 100 1014.4
20260905044522 23 173 0.0 6.4 0.00 0.00 0.00 100 1014.4
20260905044020 23 173 4.8 6.4 0.00 0.00 0.00 100 1014.4
20260905043520 23 173 0.0 0.0 0.00 0.00 0.00 100 1014.4
20260905043026 23 173 0.0 0.0 0.00 0.00 0.00 100 1014.4
20260905042522 23 173 0.0 0.0 0.00 0.00 0.00 100 1014.4
20260905042019 23 174 0.0 0.0 0.00 0.00 0.00 100 1014.4
20260905041519 23 174 0.0 0.0 0.00 0.00 0.00 100 1014.4
20260905041019 24 173 0.0 0.0 0.00 0.00 0.00 100 1014.5
20260905040521 24 174 0.0 0.0 0.00 0.00 0.00 100 1014.4
20260905040023 24 174 0.0 0.0 0.00 0.00 0.00 100 1014.4
20260905035518 24 173 0.0 0.0 0.00 0.00 0.00 100 1014.5
20260905035018 24 174 0.0 0.0 0.00 0.00 0.00 100 1014.5
20260905034518 24 174 0.0 0.0 0.00 0.00 0.00 100 1014.6
20260905034019 24 174 0.0 0.0 0.00 0.00 0.00 100 1014.6
20260905033518 24 174 0.0 0.0 0.00 0.00 0.00 100 1014.5
20260905033018 24 173 0.0 0.0 0.00 0.00 0.00 100 1014.5
20260905032518 24 174 0.0 0.0 0.00 0.00 0.00 100 1014.6
20260905032017 25 174 0.0 0.0 0.00 0.00 0.00 100 1014.6
20260905031517 25 174 0.0 0.0 0.00 0.00 0.00 100 1014.7
20260905031016 25 173 0.0 0.0 0.00 0.00 0.00 100 1014.8
20260905030517 25 174 0.0 0.0 0.00 0.00 0.00 99 1014.7
20260905030016 25 174 0.0 0.0 0.00 0.00 0.00 99 1014.8
20260905025519 25 174 0.0 0.0 0.00 0.00 0.00 99 1014.7
20260905025016 25 174 0.0 0.0 0.00 0.00 0.00 99 1014.8
20260905024518 25 174 0.0 0.0 0.00 0.00 0.00 99 1014.8
20260905024019 25 174 0.0 0.0 0.00 0.00 0.00 99 1014.7
20260905023516 25 174 0.0 0.0 0.00 0.00 0.00 99 1014.7
20260905023019 25 173 0.0 0.0 0.00 0.00 0.00 98 1014.6
20260905022515 25 174 0.0 0.0 0.00 0.00 0.00 98 1014.6
20260905022017 25 174 0.0 0.0 0.00 0.00 0.00 98 1014.7
20260905021514 26 174 0.0 0.0 0.00 0.00 0.00 98 1014.6
20260905021015 26 174 0.0 0.0 0.00 0.00 0.00 97 1014.6
20260905020514 26 174 0.0 0.0 0.00 0.00 0.00 97 1014.6
20260905020015 26 173 0.0 0.0 0.00 0.00 0.00 97 1014.6
20260905015513 26 174 0.0 0.0 0.00 0.00 0.00 97 1014.5
20260905015016 26 174 0.0 0.0 0.00 0.00 0.00 97 1014.5
20260905014512 26 173 0.0 0.0 0.00 0.00 0.00 97 1014.4
20260905014013 26 174 0.0 0.0 0.00 0.00 0.00 97 1014.3
20260905013514 27 174 0.0 0.0 0.00 0.00 0.00 96 1014.1
20260905013013 27 174 0.0 0.0 0.00 0.00 0.00 96 1014.2
20260905012513 27 174 0.0 0.0 0.00 0.00 0.00 96 1014.1
20260905012012 27 173 0.0 0.0 0.00 0.00 0.00 96 1014.1
20260905011512 27 173 0.0 0.0 0.00 0.00 0.00 95 1014.1
20260905011012 27 174 0.0 0.0 0.00 0.00 0.00 94 1014.0
20260905010513 28 173 0.0 0.0 0.00 0.00 0.00 95 1014.0
20260905010013 28 174 0.0 0.0 0.00 0.00 0.00 94 1014.0
20260905005512 28 174 0.0 0.0 0.00 0.00 0.00 92 1013.9
20260905005012 28 173 0.0 0.0 0.00 0.00 0.00 92 1013.8
20260905004510 29 173 0.0 0.0 0.00 0.00 0.00 92 1013.6
20260905004011 29 173 0.0 0.0 0.00 0.00 0.00 90 1013.7
20260905003511 30 174 0.0 0.0 0.00 0.00 0.00 89 1013.8
20260905003011 30 173 0.0 0.0 0.00 0.00 0.00 88 1013.7
20260905002512 30 173 0.0 0.0 0.00 0.00 0.00 88 1013.5
20260905002010 30 173 0.0 1.6 0.00 0.00 0.00 88 1013.6
20260905001510 31 173 0.0 3.2 0.00 0.00 0.00 87 1013.6
20260905001009 31 173 0.0 3.2 0.00 0.00 0.00 87 1013.6
20260905000509 32 173 1.6 3.2 0.00 0.00 0.00 84 1013.5
20260905000008 32 174 1.6 3.2 0.00 0.00 0.00 82 1013.5
20260904235508 32 173 0.0 1.6 0.00 0.00 0.00 82 1013.5
20260904235008 32 173 0.0 3.2 0.00 0.00 0.00 80 1013.5
20260904234508 33 173 0.0 3.2 0.00 0.00 0.00 79 1013.5
20260904234008 33 173 0.0 4.8 0.00 0.00 0.00 78 1013.6
20260904233507 34 173 1.6 4.8 0.00 0.00 0.00 77 1013.5
20260904233006 34 174 0.0 4.8 0.00 0.00 0.00 70 1013.5
20260904232508 34 174 1.6 6.4 0.00 0.00 0.00 71 1013.3
20260904232005 34 174 3.2 8.0 0.00 0.00 0.00 72 1013.1
20260904231505 33 172 4.8 8.0 0.00 0.00 0.00 72 1013.1
20260904231005 33 171 6.4 8.0 0.00 0.00 0.00 73 1013.1
20260904230504 33 145 3.2 8.0 0.00 0.00 0.00 74 1013.2
20260904230004 33 108 1.6 4.8 0.00 0.00 0.00 79 1013.2
20260904225503 33 108 0.0 3.2 0.00 0.00 0.00 77 1013.3
20260904225003 32 108 0.0 0.0 0.00 0.00 0.00 76 1013.3